Location: Asheville, NC
(35.6000°N, 82.5500°W)
Time: 16:23:10
(UTC-05:00)

Vanguard 1 - Pass Details

Date: 17 February 2018
Orbit: 650 x 3833 km, 34.2° (Epoch: 21 February)

Event Time Altitude Azimuth Distance (km) Brightness Sun altitude
Rises 12:48:48 0° 205° (SSW) 7,380 15.2 42.6°
Reaches altitude 10° 12:55:59 10° 193° (SSW) 5,839 15.1 42.5°
Maximum altitude 13:06:59 22° 151° (SSE) 3,881 14.1 42.3°
Drops below altitude 10° 13:14:34 10° 106° (ESE) 3,900 13.3 42.1°
Sets 13:18:02 0° 91° (E) 4,461 13.4 41.9°
